星链-31945 (STARLINK-31945 )

导读

STARLINK-31945是美国SpaceX星链星座中的一颗卫星,于北京时间2024年5月24日8时成功发射。星链项目旨在构建全球卫星互联网星座,为全球偏远地区、海洋空域等提供高速宽带网络服务,这颗卫星的发射进一步扩充了星链星座的在轨规模,持续推进该巨型星座的部署进程。

基本信息
目录编号:
59870
目录名称:
STARLINK-31945
国际标识:
2024-098N
轨道中心:
EARTH
卫星名称:
星链-31945
卫星全名:
星链-31945 (STARLINK-31945 )
卫星状态:
在轨 (已飞行841 天)
发射日期:
2024-05-24 UTC
国别 :
美国 (US)
星等 :
--
该卫星已列入 空间交会检测服务 Space Conjunction Data Service (SCDS) ,当前飞行风险评估等级: 无高风险
轨道信息
数据来源 国际轨道数据 AOE轨道数据
星历时间 2026-09-11T12:40:14+0800
22小时前
查看轨道信息
2026-09-06T08:00:00+0800
6天前
查看轨道信息
半长轴 6861.202km 6861.165km
偏心率 0.0001661 0.0001847
轨道倾角 43.006° 43.003°
近地点辐角 273.800° 227.225°
升交点赤经 306.301° 335.640°
平近点角 86.266° 332.746°
近地点 481.925km 481.76km
远地点 484.205km 484.296km
周期 94.267分钟 94.266分钟
每日圈数 15.27575 15.275872
详细信息
固有亮度:
5
最大亮度:
1.5
卫星平台:
Starlink v2.0 mini
覆盖范围:
全球
运营商:
太空探索技术公司
运营商所在国:
美国
制造商(研发单位):
太空探索技术公司
制造商所在国:
美国
使用方式:
暂无
卫星简介
星链(Starlink)计划是由太空探索技术公司(SpaceX)提出的一个巨型低轨卫星互联网星座项目,计划在2019年至2024年间在太空搭建由约1.2万颗卫星组成的“星链”网络,其中1584颗将部署在地球上空550千米处的近地轨道,并从2020年开始工作。该卫星仍在工作。
2D轨道图
3D轨道图
轨道高度分析图
轨道倾角分析图
轨道综合分析图
查看轨道综合分析图
交会数据列表
事件ID 空间交会对象 最接近时刻(TCA) 交会距离 交会风险概率(CRP) 交会风险指数(CRI) 操作
CDM_260913-114905-987006-197421
2026-09-13T
11:49:18+0000
0.476 km
远距离
1.55485E-4 高风险 0.79
CDM_260913-233505-987006-197421
2026-09-13T
23:35:27+0000
1.125 km
极远距离
1.126246E-5 中风险 0.56
CDM_260914-010905-987006-197421
2026-09-14T
01:09:36+0000
1.278 km
极远距离
7.259321E-6 低风险 0.52
CDM_260913-101505-987006-197421
2026-09-13T
10:15:09+0000
1.442 km
极远距离
4.849529E-6 低风险 0.49
CDM_260913-132305-987006-197422
2026-09-13T
13:23:27+0000
2.390 km
极远距离
1.285571E-6 低风险 0.37
与全量物体交会距离演化趋势
与全量物体交会风险概率演化趋势